H1 CPF 2 NER 2020 11 3 9 308 01 glonass106 H2 0705201 9106 32275 2020 11 3 0 0 0 2020 11 6 23 45 0 900 1 1 0 0 0 1 H9 10 0 59156 0.00000 0 -8046494.991 12409704.264 20781029.782 10 0 59156 900.00000 0 -10319334.516 13372843.997 19110939.934 10 0 59156 1800.00000 0 -12304156.531 14413210.680 17069580.834 10 0 59156 2700.00000 0 -13964386.386 15474733.891 14696555.841 10 0 59156 3600.00000 0 -15276011.464 16497035.655 12037928.165 10 0 59156 4500.00000 0 -16228344.382 17418049.167 9145329.252 10 0 59156 5400.00000 0 -16824234.538 18176728.175 6074956.842 10 0 59156 6300.00000 0 -17079719.499 18715732.538 2886481.926 10 0 59156 7200.00000 0 -17023131.472 18983976.046 -358113.923 10 0 59156 8100.00000 0 -16693697.197 18938928.192 -3595747.889 10 0 59156 9000.00000 0 -16139691.098 18548571.728 -6763467.838 10 0 59156 9900.00000 0 -15416220.468 17792932.386 -9799682.012 10 0 59156 10800.00000 0 -14582737.174 16665115.174 -12645361.853 10 0 59156 11700.00000 0 -13700381.840 15171802.620 -15245193.897 10 0 59156 12600.00000 0 -12829273.472 13333193.166 -17548657.733 10 0 59156 13500.00000 0 -12025859.609 11182381.541 -19511008.823 10 0 59156 14400.00000 0 -11340439.201 8764206.519 -21094147.074 10 0 59156 15300.00000 0 -10814962.864 6133613.776 -22267354.452 10 0 59156 16200.00000 0 -10481203.154 3353601.831 -23007887.765 10 0 59156 17100.00000 0 -10359371.644 492836.195 -23301415.695 10 0 59156 18000.00000 0 -10457240.646 -2376969.293 -23142292.121 10 0 59156 18900.00000 0 -10769806.056 -5183795.660 -22533661.077 10 0 59156 19800.00000 0 -11279505.097 -7858073.227 -21487391.679 10 0 59156 20700.00000 0 -11956979.453 -10335333.524 -20023844.630 10 0 59156 21600.00000 0 -12762351.425 -12558649.490 -18171474.902 10 0 59156 22500.00000 0 -13646959.359 -14480763.511 -15966278.242 10 0 59156 23400.00000 0 -14555479.262 -16065815.748 -13451092.090 10 0 59156 24300.00000 0 -15428343.341 -17290601.933 -10674764.204 10 0 59156 25200.00000 0 -16204353.669 -18145309.278 -7691204.837 10 0 59156 26100.00000 0 -16823380.854 -18633700.872 -4558340.758 10 0 59156 27000.00000 0 -17229033.904 -18772741.932 -1336991.257 10 0 59156 27900.00000 0 -17371188.554 -18591684.722 1910312.062 10 0 59156 28800.00000 0 -17208267.213 -18130651.484 5120538.616 10 0 59156 29700.00000 0 -16709173.973 -17438775.787 8231381.619 10 0 59156 30600.00000 0 -15854802.710 -16571981.325 11182466.453 10 0 59156 31500.00000 0 -14639054.084 -15590492.055 13916520.945 10 0 59156 32400.00000 0 -13069317.884 -14556178.915 16380484.869 10 0 59156 33300.00000 0 -11166399.627 -13529855.061 18526537.289 10 0 59156 34200.00000 0 -8963893.511 -12568633.457 20313022.000 10 0 59156 35100.00000 0 -6507026.899 -11723457.853 21705253.512 10 0 59156 36000.00000 0 -3851023.370 -11036910.692 22676188.361 10 0 59156 36900.00000 0 -1059051.435 -10541389.851 23206949.124 10 0 59156 37800.00000 0 1800156.909 -10257730.552 23287191.335 10 0 59156 38700.00000 0 4654920.021 -10194330.171 22915306.383 10 0 59156 39600.00000 0 7433345.278 -10346812.713 22098456.413 10 0 59156 40500.00000 0 10066079.900 -10698247.154 20852440.341 10 0 59156 41400.00000 0 12488960.559 -11219910.782 19201393.075 10 0 59156 42300.00000 0 14645452.297 -11872565.817 17177323.197 10 0 59156 43200.00000 0 16488775.896 -12608195.999 14819497.306 10 0 59156 44100.00000 0 17983635.512 -13372130.412 12173682.247 10 0 59156 45000.00000 0 19107474.742 -14105465.227 9291259.360 10 0 59156 45900.00000 0 19851208.975 -14747681.236 6228227.499 10 0 59156 46800.00000 0 20219403.665 -15239346.435 3044113.984 10 0 59156 47700.00000 0 20229891.411 -15524788.985 -199185.147 10 0 59156 48600.00000 0 19912844.491 -15554626.855 -3438612.715 10 0 59156 49500.00000 0 19309342.516 -15288046.273 -6611181.749 10 0 59156 50400.00000 0 18469496.286 -14694731.679 -9655205.838 10 0 59156 51300.00000 0 17450207.829 -13756364.533 -12511503.829 10 0 59156 52200.00000 0 16312661.887 -12467626.664 -15124554.777 10 0 59156 53100.00000 0 15119655.481 -10836664.852 -17443580.060 10 0 59156 54000.00000 0 13932878.763 -8884996.202 -19423531.373 10 0 59156 54900.00000 0 12810262.185 -6646857.414 -21025965.348 10 0 59156 55800.00000 0 11803501.913 -4168024.578 -22219787.973 10 0 59156 56700.00000 0 10955867.498 -1504152.198 -22981854.785 10 0 59156 57600.00000 0 10300383.701 1281299.849 -23297415.750 10 0 59156 58500.00000 0 9858462.322 4119465.539 -23160396.757 10 0 59156 59400.00000 0 9639040.844 6938698.898 -22573512.856 10 0 59156 60300.00000 0 9638263.314 9667318.675 -21548211.481 10 0 59156 61200.00000 0 9839716.129 12236358.059 -20104447.048 10 0 59156 62100.00000 0 10215208.174 14582205.995 -18270291.440 10 0 59156 63000.00000 0 10726061.934 16649031.177 -16081387.845 10 0 59156 63900.00000 0 11324860.871 18390888.629 -13580258.401 10 0 59156 64800.00000 0 11957579.163 19773422.160 -10815478.862 10 0 59156 65700.00000 0 12566003.874 20775092.585 -7840735.988 10 0 59156 66600.00000 0 13090347.244 21387881.320 -4713785.856 10 0 59156 67500.00000 0 13471938.724 21617440.914 -1495333.162 10 0 59156 68400.00000 0 13655882.919 21482687.080 1752146.747 10 0 59156 69300.00000 0 13593570.966 21014850.165 4965620.072 10 0 59156 70200.00000 0 13244938.990 20256026.794 8082717.361 10 0 59156 71100.00000 0 12580377.880 19257293.120 11042943.075 10 0 59156 72000.00000 0 11582213.202 18076459.458 13788848.157 10 0 59156 72900.00000 0 10245692.268 16775561.223 16267142.971 10 0 59156 73800.00000 0 8579435.858 15418191.669 18429729.088 10 0 59156 74700.00000 0 6605334.651 14066788.634 20234630.069 10 0 59156 75600.00000 0 4357893.627 12779989.115 21646803.669 10 0 59156 76500.00000 0 1883050.477 11610162.320 22638820.025 10 0 59156 77400.00000 0 -763483.891 10601224.343 23191393.121 10 0 59156 78300.00000 0 -3518294.977 9786825.666 23293755.570 10 0 59156 79200.00000 0 -6312659.680 9188987.048 22943869.639 10 0 59156 80100.00000 0 -9075168.217 8817240.676 22148470.409 10 0 59156 81000.00000 0 -11734465.225 8668312.345 20922940.029 10 0 59156 81900.00000 0 -14221997.072 8726357.863 19291014.999 10 0 59156 82800.00000 0 -16474651.878 8963743.796 17284331.597 10 0 59156 83700.00000 0 -18437182.963 9342339.748 14941817.518 10 0 59156 84600.00000 0 -20064315.162 9815267.902 12308940.789 10 0 59156 85500.00000 0 -21322446.259 10329036.106 9436829.954 10 0 59157 0.00000 0 -22190872.631 10825964.447 6381282.232 10 0 59157 900.00000 0 -22662487.669 11246802.352 3201678.270 10 0 59157 1800.00000 0 -22743924.494 11533425.746 -40174.244 10 0 59157 2700.00000 0 -22455135.932 11631498.308 -3281246.602 10 0 59157 3600.00000 0 -21828431.298 11492984.672 -6458519.783 10 0 59157 4500.00000 0 -20907009.920 11078407.280 -9510215.437 10 0 59157 5400.00000 0 -19743054.375 10358750.776 -12377002.425 10 0 59157 6300.00000 0 -18395464.301 9316932.228 -15003154.776 10 0 59157 7200.00000 0 -16927326.997 7948774.102 -17337637.905 10 0 59157 8100.00000 0 -15403231.974 6263437.957 -19335101.703 10 0 59157 9000.00000 0 -13886542.848 4283299.662 -20956761.160 10 0 59157 9900.00000 0 -12436741.589 2043270.584 -22171147.537 10 0 59157 10800.00000 0 -11106956.595 -410407.631 -22954715.953 10 0 59157 11700.00000 0 -9941778.033 -3021845.042 -23292298.112 10 0 59157 12600.00000 0 -8975451.543 -5727592.595 -23177391.966 10 0 59157 13500.00000 0 -8230525.201 -8459052.145 -22612283.253 10 0 59157 14400.00000 0 -7717005.545 -11145107.719 -21607997.030 10 0 59157 15300.00000 0 -7432057.048 -13714869.171 -20184080.398 10 0 59157 16200.00000 0 -7360256.603 -16100414.879 -18368220.821 10 0 59157 17100.00000 0 -7474391.410 -18239420.142 -16195707.325 10 0 59157 18000.00000 0 -7736765.910 -20077562.530 -13708744.955 10 0 59157 18900.00000 0 -8100962.071 -21570604.740 -10955635.507 10 0 59157 19800.00000 0 -8513978.334 -22686068.848 -7989840.192 10 0 59157 20700.00000 0 -8918656.621 -23404432.675 -4868942.273 10 0 59157 21600.00000 0 -9256294.583 -23719798.991 -1653529.694 10 0 59157 22500.00000 0 -9469332.494 -23640010.242 1593980.653 10 0 59157 23400.00000 0 -9504000.929 -23186204.576 4810554.017 10 0 59157 24300.00000 0 -9312817.026 -22391832.530 7933760.622 10 0 59157 25200.00000 0 -8856823.454 -21301176.138 10902986.383 10 0 59157 26100.00000 0 -8107475.080 -19967433.131 13660607.803 10 0 59157 27000.00000 0 -7048093.087 -18450446.903 16153108.252 10 0 59157 27900.00000 0 -5674824.449 -16814177.690 18332114.117 10 0 59157 28800.00000 0 -3997065.561 -15124021.234 20155330.912 10 0 59157 29700.00000 0 -2037331.074 -13444087.023 21587361.564 10 0 59157 30600.00000 0 169427.867 -11834549.853 22600391.457 10 0 59157 31500.00000 0 2577028.749 -10349185.197 23174727.294 10 0 59157 32400.00000 0 5129737.402 -9033190.906 23299179.730 10 0 59157 33300.00000 0 7764353.716 -7921385.808 22971282.527 10 0 59157 34200.00000 0 10412617.840 -7036860.064 22197343.990 10 0 59157 35100.00000 0 13003838.033 -6390133.203 20992329.456 10 0 59157 36000.00000 0 15467631.945 -5978854.673 19379576.668 10 0 59157 36900.00000 0 17736668.011 -5788059.152 17390348.938 10 0 59157 37800.00000 0 19749293.455 -5790965.607 15063234.070 10 0 59157 38700.00000 0 21451939.717 -5950286.307 12443399.929 10 0 59157 39600.00000 0 22801204.957 -6219990.451 9581720.548 10 0 59157 40500.00000 0 23765526.623 -6547447.799 6533789.261 10 0 59157 41400.00000 0 24326373.933 -6875861.352 3358837.803 10 0 59157 42300.00000 0 24478910.134 -7146885.785 118582.555 10 0 59157 43200.00000 0 24232096.714 -7303320.110 -3123979.357 10 0 59157 44100.00000 0 23608235.249 -7291759.743 -6305800.120 10 0 59157 45000.00000 0 22641966.402 -7065094.758 -9365012.732 10 0 59157 45900.00000 0 21378768.584 -6584747.478 -12242139.290 10 0 59157 46800.00000 0 19873019.974 -5822553.718 -14881251.849 10 0 59157 47700.00000 0 18185706.003 -4762207.090 -17231062.684 10 0 59157 48600.00000 0 16381869.275 -3400204.417 -19245922.436 10 0 59157 49500.00000 0 14527909.472 -1746251.431 -20886706.707 10 0 59157 50400.00000 0 12688846.923 176889.158 -22121573.975 10 0 59157 51300.00000 0 10925664.565 2334101.688 -22926580.533 10 0 59157 52200.00000 0 9292839.411 4679145.013 -23286141.051 10 0 59157 53100.00000 0 7836166.359 7156352.753 -23193326.364 10 0 59157 54000.00000 0 6590964.604 9702736.134 -22649993.315 10 0 59157 54900.00000 0 5580740.619 12250402.451 -21666744.561 10 0 59157 55800.00000 0 4816362.565 14729189.036 -20262719.447 10 0 59157 56700.00000 0 4295779.409 17069403.748 -18465220.141 10 0 59157 57600.00000 0 4004295.281 19204558.506 -16309180.231 10 0 59157 58500.00000 0 3915386.406 21073982.553 -13836485.974 10 0 59157 59400.00000 0 3992025.234 22625207.078 -11095163.140 10 0 59157 60300.00000 0 4188455.130 23816022.257 -8138444.951 10 0 59157 61200.00000 0 4452340.125 24616121.219 -5023739.093 10 0 59157 62100.00000 0 4727198.430 25008262.708 -1811513.721 10 0 59157 63000.00000 0 4955016.444 24988904.152 1435875.961 10 0 59157 63900.00000 0 5078932.396 24568279.130 4655397.575 10 0 59157 64800.00000 0 5045875.782 23769916.380 7784564.354 10 0 59157 65700.00000 0 4809050.668 22629620.849 10762646.929 10 0 59157 66600.00000 0 4330157.491 21193959.902 13531850.440 10 0 59157 67500.00000 0 3581259.028 19518318.250 16038434.119 10 0 59157 68400.00000 0 2546211.163 17664603.319 18233751.767 10 0 59157 69300.00000 0 1221597.419 15698697.154 20075193.123 10 0 59157 70200.00000 0 -382873.015 13687761.313 21527008.249 10 0 59157 71100.00000 0 -2244521.609 11697507.142 22560999.372 10 0 59157 72000.00000 0 -4328405.949 9789544.963 23157067.124 10 0 59157 72900.00000 0 -6588546.179 8018922.346 23303600.972 10 0 59157 73800.00000 0 -8969622.781 6431953.541 22997706.483 10 0 59157 74700.00000 0 -11409076.193 5064430.036 22245264.980 10 0 59157 75600.00000 0 -13839522.184 3940286.282 21060824.266 10 0 59157 76500.00000 0 -16191383.522 3070775.658 19467322.067 10 0 59157 77400.00000 0 -18395629.176 2454190.647 17495646.968 10 0 59157 78300.00000 0 -20386507.546 2076138.357 15184044.653 10 0 59157 79200.00000 0 -22104160.087 1910359.389 12577380.218 10 0 59157 80100.00000 0 -23497006.206 1920055.171 9726270.283 10 0 59157 81000.00000 0 -24523799.596 2059667.401 6686101.277 10 0 59157 81900.00000 0 -25155269.623 2277033.973 3515952.717 10 0 59157 82800.00000 0 -25375278.542 2515829.746 277446.538 10 0 59157 83700.00000 0 -25181445.666 2718188.145 -2966454.851 10 0 59157 84600.00000 0 -24585211.990 2827391.797 -6152677.902 10 0 59157 85500.00000 0 -23611342.471 2790517.314 -9219269.918 10 0 59158 0.00000 0 -22296887.008 2560921.292 -12106608.975 10 0 59158 900.00000 0 -20689643.847 2100460.795 -14758567.883 10 0 59158 1800.00000 0 -18846190.868 1381354.739 -17123608.099 10 0 59158 2700.00000 0 -16829567.225 387604.347 -19155783.043 10 0 59158 3600.00000 0 -14706703.443 -884085.847 -20815630.573 10 0 59158 4500.00000 0 -12545707.819 -2423927.604 -22070937.544 10 0 59158 5400.00000 0 -10413122.825 -4209225.321 -22897362.088 10 0 59158 6300.00000 0 -8371266.036 -6205102.667 -23278901.980 10 0 59158 7200.00000 0 -6475766.329 -8365749.720 -23208200.599 10 0 59158 8100.00000 0 -4773397.458 -10636139.183 -22686685.092 10 0 59158 9000.00000 0 -3300298.461 -12954140.694 -21724534.533 10 0 59158 9900.00000 0 -2080654.082 -15252945.592 -20340478.987 10 0 59158 10800.00000 0 -1125888.964 -17463701.670 -18561433.546 10 0 59158 11700.00000 0 -434407.922 -19518248.600 -16421974.367 10 0 59158 12600.00000 0 8108.197 -21351840.399 -13963666.799 10 0 59158 13500.00000 0 227864.811 -22905741.774 -11234258.371 10 0 59158 14400.00000 0 261610.477 -24129590.296 -8286752.079 10 0 59158 15300.00000 0 154845.859 -24983425.922 -5178377.797 10 0 59158 16200.00000 0 -40338.838 -25439303.221 -1969481.695 10 0 59158 17100.00000 0 -267705.957 -25482419.024 1277644.874 10 0 59158 18000.00000 0 -469488.327 -25111708.414 4499974.053 10 0 59158 18900.00000 0 -589071.896 -24339884.181 7634964.189 10 0 59158 19800.00000 0 -573629.218 -23192918.424 10621772.729 10 0 59158 20700.00000 0 -376592.168 -21708987.949 13402435.529 10 0 59158 21600.00000 0 40141.025 -19936927.651 15922989.689 10 0 59158 22500.00000 0 704358.101 -17934256.757 18134518.337 10 0 59158 23400.00000 0 1632122.890 -15764860.320 19994097.187 10 0 59158 24300.00000 0 2826863.371 -13496422.672 21465624.975 10 0 59158 25200.00000 0 4278996.918 -11197719.531 22520522.042 10 0 59158 26100.00000 0 5966109.566 -8935881.289 23138283.920 10 0 59158 27000.00000 0 7853683.029 -6773740.908 23306879.561 10 0 59158 27900.00000 0 9896340.498 -4767376.228 23022986.696 10 0 59158 28800.00000 0 12039560.466 -2963948.373 22292059.740 10 0 59158 29700.00000 0 14221788.444 -1399925.548 21128228.773 10 0 59158 30600.00000 0 16376859.664 -99765.533 19554031.058 10 0 59158 31500.00000 0 18436632.624 924888.784 17599979.767 10 0 59158 32400.00000 0 20333724.309 1675467.913 15303977.533 10 0 59158 33300.00000 0 22004233.266 2166178.124 12710585.482 10 0 59158 34200.00000 0 23390336.740 2423160.721 9870161.332 10 0 59158 35100.00000 0 24442653.017 2483144.237 6837882.804 10 0 59158 36000.00000 0 25122269.606 2391646.989 3672675.074 10 0 59158 36900.00000 0 25402351.585 2200806.508 436063.215 10 0 59158 37800.00000 0 25269262.059 1966928.424 -2809027.761 10 0 59158 38700.00000 0 24723147.055 1747859.335 -5999501.416 10 0 59158 39600.00000 0 23777959.874 1600295.823 -9073322.274 10 0 59158 40500.00000 0 22460923.635 1577144.556 -11970727.406 10 0 59158 41400.00000 0 20811454.463 1725046.215 -14635392.948 10 0 59158 42300.00000 0 18879590.706 2082168.960 -17015532.238 10 0 59158 43200.00000 0 16723994.260 2676365.605 -19064903.911 10 0 59158 44100.00000 0 14409607.987 3523773.141 -20743710.253 10 0 59158 45000.00000 0 12005067.565 4627914.350 -22019368.458 10 0 59158 45900.00000 0 9579976.011 5979340.009 -22867140.203 10 0 59158 46800.00000 0 7202154.563 7555827.379 -23270607.812 10 0 59158 47700.00000 0 4934984.315 9323127.199 -23221988.332 10 0 59158 48600.00000 0 2834948.787 11236228.479 -22722279.982 10 0 59158 49500.00000 0 949478.919 13241088.806 -21781238.620 10 0 59158 50400.00000 0 -684810.723 15276758.296 -20417184.967 10 0 59158 51300.00000 0 -2043422.330 17277809.031 -18656646.516 10 0 59158 52200.00000 0 -3114758.999 19176969.004 -16533841.030 10 0 59158 53100.00000 0 -3900361.277 20907850.880 -14090011.536 10 0 59158 54000.00000 0 -4414587.751 22407661.924 -11372625.506 10 0 59158 54900.00000 0 -4683754.430 23619782.007 -8434453.512 10 0 59158 55800.00000 0 -4744770.364 24496101.962 -5332545.089 10 0 59158 56700.00000 0 -4643328.015 24999024.428 -2127121.601 10 0 59158 57600.00000 0 -4431725.627 25103043.398 1119592.481 10 0 59158 58500.00000 0 -4166414.202 24795836.150 4344576.992 10 0 59158 59400.00000 0 -3905373.370 24078821.770 7485238.649 10 0 59158 60300.00000 0 -3705427.478 22967162.744 10480624.958 10 0 59158 61200.00000 0 -3619615.721 21489209.353 13272605.624 10 0 59158 62100.00000 0 -3694727.743 19685410.125 15806998.659 10 0 59158 63000.00000 0 -3969109.115 17606733.456 18034619.349 10 0 59158 63900.00000 0 -4470829.649 15312666.262 19912231.980 10 0 59158 64800.00000 0 -5216292.253 12868872.987 21403386.262 10 0 59158 65700.00000 0 -6209341.467 10344611.875 22479122.629 10 0 59158 66600.00000 0 -7440909.973 7810015.752 23118533.119 10 0 59158 67500.00000 0 -8889218.894 5333349.748 23309167.332 10 0 59158 68400.00000 0 -10520524.657 2978359.345 23047275.849 10 0 59158 69300.00000 0 -12290382.385 801818.295 22337886.339 10 0 59158 70200.00000 0 -14145374.201 -1148622.396 21194710.751 10 0 59158 71100.00000 0 -16025231.442 -2836195.703 19639884.911 10 0 59158 72000.00000 0 -17865263.028 -4236317.341 17703545.042 10 0 59158 72900.00000 0 -19598989.262 -5337368.622 15423248.669 10 0 59158 73800.00000 0 -21160871.399 -6140931.421 12843250.437 10 0 59158 74700.00000 0 -22489022.796 -6661466.008 10013646.278 10 0 59158 75600.00000 0 -23527787.942 -6925446.041 6989402.056 10 0 59158 76500.00000 0 -24230080.713 -6969987.792 3829285.274 10 0 59158 77400.00000 0 -24559383.042 -6841032.117 594720.731 10 0 59158 78300.00000 0 -24491319.265 -6591156.780 -2651407.383 10 0 59158 79200.00000 0 -24014739.164 -6277112.461 -5845983.122 10 0 59158 80100.00000 0 -23132263.438 -5957187.631 -8926891.533 10 0 59158 81000.00000 0 -21860268.097 -5688514.802 -11834231.774 10 0 59158 81900.00000 0 -20228307.977 -5524433.109 -14511486.385 10 0 59158 82800.00000 0 -18278003.394 -5512019.717 -16906623.255 10 0 59158 83700.00000 0 -16061436.556 -5689895.235 -18973108.571 10 0 59158 84600.00000 0 -13639124.887 -6086396.553 -20670810.968 10 0 59158 85500.00000 0 -11077656.155 -6718194.745 -21966779.357 10 0 59159 0.00000 0 -8447084.208 -7589416.739 -22835879.741 10 0 59159 900.00000 0 -5818193.701 -8691308.520 -23261279.191 10 0 59159 1800.00000 0 -3259747.579 -10002453.260 -23234768.008 10 0 59159 2700.00000 0 -835831.717 -11489537.449 -22756914.534 10 0 59159 3600.00000 0 1396594.364 -13108631.496 -21837050.003 10 0 59159 4500.00000 0 3389838.884 -14806932.673 -20493084.013 10 0 59159 5400.00000 0 5107223.822 -16524897.397 -18751154.387 10 0 59159 6300.00000 0 6524364.051 -18198674.124 -16645118.198 10 0 59159 7200.00000 0 7629927.607 -19762735.273 -14215893.698 10 0 59159 8100.00000 0 8425846.857 -21152598.294 -11510665.740 10 0 59159 9000.00000 0 8926973.216 -22307522.093 -8581969.837 10 0 59159 9900.00000 0 9160191.215 -23173065.786 -5486672.537 10 0 59159 10800.00000 0 9163030.479 -23703402.560 -2284867.766 10 0 59159 11700.00000 0 8981835.120 -23863291.390 961289.471 10 0 59159 12600.00000 0 8669568.603 -23629623.629 4188789.193 10 0 59159 13500.00000 0 8283347.524 -22992479.408 7334988.872 10 0 59159 14400.00000 0 7881808.999 -21955649.153 10338828.302 10 0 59159 15300.00000 0 7522423.252 -20536598.035 13142013.147 10 0 59159 16200.00000 0 7258865.210 -18765874.392 15690144.188 10 0 59159 17100.00000 0 7138556.299 -16685986.388 17933770.510 10 0 59159 18000.00000 0 7200480.416 -14349793.524 19829346.357 10 0 59159 18900.00000 0 7473366.317 -11818479.490 21340073.508 10 0 59159 19800.00000 0 7974313.333 -9159190.213 22436613.260 10 0 59159 20700.00000 0 8707918.639 -6442434.871 23097654.585 10 0 59159 21600.00000 0 9665943.395 -3739357.035 23310327.859 10 0 59159 22500.00000 0 10827532.595 -1118988.604 23070456.321 10 0 59159 23400.00000 0 12159980.348 1354400.153 22382640.434 10 0 59159 24300.00000 0 13620009.570 3623745.230 21260173.317 10 0 59159 25200.00000 0 15155513.561 5641327.383 19724788.463 10 0 59159 26100.00000 0 16707687.480 7370516.216 17806244.062 10 0 59159 27000.00000 0 18213461.221 8787047.949 15541751.288 10 0 59159 27900.00000 0 19608132.304 9879784.241 12975256.896 10 0 59159 28800.00000 0 20828088.565 10650920.937 10156593.447 10 0 59159 29700.00000 0 21813506.304 11115638.723 7140513.166 10 0 59159 30600.00000 0 22510910.153 11301211.044 3985623.912 10 0 59159 31500.00000 0 22875486.369 11245607.563 753248.047 10 0 59159 32400.00000 0 22873051.431 10995652.872 -2493773.372 10 0 59159 33300.00000 0 22481592.127 10604819.075 -5692307.311 10 0 59159 34200.00000 0 21692311.403 10130746.440 -8780161.773 10 0 59159 35100.00000 0 20510135.086 9632597.949 -11697300.428 10 0 59159 36000.00000 0 18953657.440 9168360.553 -14387014.526 10 0 59159 36900.00000 0 17054527.297 8792208.141 -16797028.669 10 0 59159 37800.00000 0 14856300.119 8552038.425 -18880518.607 10 0 59159 38700.00000 0 12412803.783 8487288.395 -20597021.156 10 0 59159 39600.00000 0 9786086.319 8627120.976 -21913218.626 10 0 59159 40500.00000 0 7044031.153 8989059.630 -22803582.882 10 0 59159 41400.00000 0 4257739.024 9578128.598 -23250867.036 10 0 59159 42300.00000 0 1498785.395 10386535.069 -23246435.751 10 0 59159 43200.00000 0 -1163533.062 11393906.722 -22790428.315 10 0 59159 44100.00000 0 -3664849.105 12568074.808 -21891751.789 10 0 59159 45000.00000 0 -5948163.258 13866370.033 -20567904.686 10 0 59159 45900.00000 0 -7965969.562 15237377.090 -18844634.771 10 0 59159 46800.00000 0 -9681981.462 16623074.484 -16755437.586 10 0 59159 47700.00000 0 -11072387.219 17961270.076 -14340905.362 10 0 59159 48600.00000 0 -12126583.869 19188230.385 -11647938.710 10 0 59159 49500.00000 0 -12847360.499 20241393.403 -8728836.151 10 0 59159 50400.00000 0 -13250524.505 21062051.024 -5640279.034 10 0 59159 51300.00000 0 -13363987.849 21597888.347 -2442231.416 10 0 59159 52200.00000 0 -13226352.883 21805272.945 803223.769 10 0 59159 53100.00000 0 -12885058.336 21651197.607 4033089.479 10 0 59159 54000.00000 0 -12394164.453 21114794.581 7184676.804 10 0 59159 54900.00000 0 -11811871.372 20188357.175 10196820.765 10 0 59159 55800.00000 0 -11197875.979 18877825.431 13011065.926 10 0 59159 56700.00000 0 -10610679.059 17202714.812 15572798.780 10 0 59159 57600.00000 0 -10104956.547 15195490.222 17832305.062 10 0 59159 58500.00000 0 -9729105.877 12900410.921 19745731.667 10 0 59159 59400.00000 0 -9523070.845 10371893.804 21275934.931 10 0 59159 60300.00000 0 -9516536.625 7672462.413 22393199.231 10 0 59159 61200.00000 0 -9727570.970 4870366.219 23075812.363 10 0 59159 62100.00000 0 -10161768.966 2036968.258 23310486.943 10 0 59159 63000.00000 0 -10811937.699 -755991.335 23092619.885 10 0 59159 63900.00000 0 -11658334.613 -3439143.082 22426384.941 10 0 59159 64800.00000 0 -12669450.281 -5948134.065 21324656.359 10 0 59159 65700.00000 0 -13803303.579 -8226062.927 19808764.689 10 0 59159 66600.00000 0 -15009195.676 -10225603.441 17908088.932 10 0 59159 67500.00000 0 -16229850.009 -11910728.962 15659492.228 10 0 59159 68400.00000 0 -17403848.907 -13257966.544 13106611.292 10 0 59159 69300.00000 0 -18468264.824 -14257128.855 10299012.763 10 0 59159 70200.00000 0 -19361375.501 -14911493.864 7291232.364 10 0 59159 71100.00000 0 -20025348.577 -15237425.392 4141715.216 10 0 59159 72000.00000 0 -20408781.933 -15263451.083 911677.984 10 0 59159 72900.00000 0 -20468991.991 -15028837.368 -2336084.762 10 0 59159 73800.00000 0 -20173952.481 -14581722.330 -5538426.299 10 0 59159 74700.00000 0 -19503800.958 -13976886.144 -8633080.997 10 0 59159 75600.00000 0 -18451848.547 -13273254.198 -11559880.374 10 0 59159 76500.00000 0 -17025049.405 -12531239.325 -14261927.627 10 0 59159 77400.00000 0 -15243909.372 -11810036.273 -16686707.105 10 0 59159 78300.00000 0 -13141836.932 -11164983.426 -18787106.860 10 0 59159 79200.00000 0 -10763963.120 -10645103.689 -20522334.226 10 0 59159 80100.00000 0 -8165479.385 -10290928.633 -21858706.733 10 0 59159 81000.00000 0 -5409562.461 -10132697.736 -22770303.340 10 0 59159 81900.00000 0 -2564972.397 -10189008.554 -23239463.832 10 0 59159 82800.00000 0 296576.544 -10465974.467 -23257127.218 10 0 59159 83700.00000 0 3103163.268 -10956925.195 -22823003.136 10 0 59159 84600.00000 0 5785411.973 -11642662.468 -21945573.380 10 0 59159 85500.00000 0 8279135.306 -12492259.911 -20641923.853 99